Wetbulb
68.94 71.44 74.59 73.81 73.30 72.80 71.95 70.63 70.57 70.02 69.37 68.62 68.02 67.75 67.35 67.30 66.65 66.19 65.92 65.82 65.82 65.58 65.23 65.18 65.14 65.08 64.84 64.52 64.85 65.19 66.10 66.59 67.67 69.34 70.72 71.71 72.63 73.83 74.10 74.57 75.58 74.21 75.66
69.57 71.51 74.16 73.71 73.10 72.72 72.14 71.72 71.44 70.90 70.50 69.75 68.63 67.83 67.48 67.19 66.79 66.55 66.20 65.82 65.74 65.81 65.70 65.50 65.72 65.91 66.05 65.85 65.32 65.39 65.73 66.57 67.21 67.48 68.56 69.50 70.47 73.85 73.85 73.77 75.34 74.73 75.69
68.89 70.51 71.92 73.49 73.20 72.93 72.63 72.09 71.58 71.21 70.94 70.35 69.89 68.78 67.77 67.67 67.14 66.92 66.74 66.47 66.39 66.08 66.19 66.16 66.27 66.62 66.98 67.16 66.95 66.60 66.37 66.31 67.19 67.46 67.67 64.75 65.89 70.75 74.45 73.81 73.93 74.91 75.14
68.60 69.75 70.16 73.39 73.16 72.96 72.54 72.08 71.66 71.39 71.14 70.88 69.99 68.72 68.14 67.91 67.43 67.19 66.95 66.98 67.19 67.16 67.11 67.35 67.57 67.46 67.65 67.97 68.20 68.04 67.91 67.75 67.16 66.92 64.27 64.56 63.79 69.20 74.96 74.17 73.76 74.02 74.61
68.06 68.85 69.37 73.42 73.07 72.94 72.57 72.15 71.78 71.51 71.41 70.83 69.83 69.30 68.78 68.29 68.23 68.79 67.89 67.89 68.11 68.57 68.68 69.17 68.95 68.90 68.83 69.14 69.42 69.20 68.89 68.59 68.52 67.79 64.19 62.09 60.49 66.03 72.97 74.14 74.04 73.72 73.77
68.87 68.34 71.39 73.44 73.15 73.07 72.72 72.38 71.98 72.08 71.64 71.13 70.57 70.01 69.36 69.33 69.11 69.27 69.03 68.92 68.97 69.27 69.57 70.11 70.24 70.15 69.83 69.94 70.91 70.81 70.11 69.33 69.31 66.71 65.27 64.79 65.18 69.88 74.37 73.98 73.55 73.49 73.57
68.88 68.39 71.39 73.42 73.49 73.59 73.34 72.95 72.55 72.38 72.01 71.81 71.70 70.97 70.75 70.86 70.82 70.30 69.41 69.26 69.58 70.02 70.61 70.65 70.00 69.68 69.65 69.63 69.76 70.50 70.35 69.44 67.47 66.59 66.29 65.82 64.85 72.85 74.27 73.49 73.13 73.21 72.70
69.39 68.64 70.81 72.97 73.61 73.44 73.37 73.00 72.70 72.25 72.08 72.11 71.96 71.88 71.76 71.74 71.51 71.22 70.37 69.93 70.40 70.76 70.91 69.77 69.59 68.88 68.75 68.89 69.33 69.84 69.74 69.29 67.40 65.45 66.23 66.18 68.53 73.57 73.55 73.19 72.97 72.50 72.65
69.76 69.16 70.30 70.86 72.16 73.89 73.44 72.99 72.59 72.27 72.13 71.78 71.64 71.83 71.86 71.81 71.54 71.54 71.51 71.24 70.87 71.44 70.55 69.97 68.87 67.95 67.91 68.08 68.72 69.28 69.38 69.45 66.14 65.45 66.28 64.86 70.15 72.90 72.42 72.37 72.80 72.55 72.25
68.21 70.40 69.83 70.04 70.40 70.85 71.38 73.56 72.76 72.39 72.20 72.00 71.88 71.95 72.05 71.93 71.83 72.07 71.49 71.89 71.61 71.15 70.87 69.61 68.33 68.08 67.57 67.41 68.26 68.99 69.01 69.28 66.26 65.79 65.29 64.33 70.08 72.12 72.07 72.24 72.35 72.53 72.30
65.08 70.24 70.22 69.77 69.92 69.82 70.13 71.83 72.74 73.14 72.59 72.44 71.99 72.20 71.27 68.97 69.37 70.05 71.13 71.52 71.88 71.86 71.10 69.65 68.64 68.28 67.72 67.46 66.95 68.02 69.14 65.30 65.50 65.32 64.99 67.45 70.45 71.72 71.16 70.92 71.98 72.23 72.15
58.24 68.94 70.16 69.82 69.65 69.77 70.51 70.01 70.46 70.45 70.19 70.42 69.94 69.56 69.28 68.05 66.41 68.23 69.56 71.93 72.30 72.23 71.12 70.09 69.33 68.38 67.53 63.35 62.95 66.35 64.96 65.03 64.43 63.65 63.73 69.09 70.76 71.12 70.64 70.34 71.13 71.88 71.90
59.37 63.69 70.04 69.95 69.97 69.81 69.64 69.35 69.98 69.93 69.71 69.99 69.05 67.75 68.70 67.78 66.86 67.76 65.49 68.32 68.54 70.33 66.63 67.76 66.66 65.45 63.55 62.48 61.67 60.76 64.31 64.93 64.74 64.15 65.15 69.12 70.68 71.07 70.39 70.01 70.40 71.12 71.43
58.53 59.26 67.23 70.37 70.44 69.86 69.75 68.64 69.72 69.23 69.23 68.93 68.96 67.07 67.61 67.47 67.26 66.32 64.04 64.72 64.92 65.28 64.03 63.30 64.10 64.43 62.92 63.57 64.05 63.62 64.27 65.08 63.60 63.33 64.21 69.31 70.14 70.75 70.17 69.80 69.60 70.42 71.22
57.66 59.41 62.38 66.68 70.36 70.03 68.45 68.34 69.33 69.15 68.96 68.42 68.04 67.83 67.53 67.58 66.58 64.49 63.00 63.31 64.11 63.81 64.47 63.65 63.63 64.61 62.67 62.67 63.22 64.11 63.98 63.76 64.00 64.56 63.97 69.93 70.33 69.80 69.93 69.72 69.43 69.52 70.57
59.24 60.65 61.31 65.99 68.45 69.31 68.55 68.06 69.54 69.75 69.28 68.33 68.11 67.99 68.79 68.34 65.76 64.74 64.39 64.52 63.66 63.44 62.26 63.07 62.44 62.17 61.31 61.83 61.63 62.86 63.68 63.93 64.34 64.43 64.42 64.83 69.36 69.06 69.35 69.26 69.37 69.17 69.74
61.72 61.25 61.25 62.34 66.71 68.38 68.13 68.28 69.52 69.84 69.34 68.47 68.15 68.83 69.37 66.89 64.89 64.98 63.93 64.01 64.06 63.78 63.29 63.07 62.91 62.83 62.32 61.76 61.67 61.87 61.84 63.41 63.34 63.38 64.30 66.34 65.93 68.65 69.26 69.70 69.74 69.59 69.51
61.02 60.70 61.73 70.51 68.36 68.51 67.46 68.24 69.39 69.23 67.99 67.42 66.38 68.13 67.78 65.92 65.22 64.88 64.17 63.63 63.93 63.67 62.91 62.37 62.10 61.50 61.79 61.55 60.29 60.10 61.60 62.81 62.06 63.93 63.75 65.30 64.06 64.56 68.03 68.67 69.53 70.21 70.15
60.60 60.33 62.57 66.47 68.26 68.58 68.87 68.16 68.59 68.32 66.24 65.49 64.65 65.23 67.09 66.42 66.84 64.88 64.45 63.77 64.13 63.66 63.03 62.57 61.72 61.23 60.30 60.59 60.75 60.13 60.45 61.33 61.67 64.00 62.68 61.93 63.26 64.15 64.61 67.95 68.47 69.49 70.26
62.58 64.38 64.47 67.70 68.83 69.10 69.31 68.79 68.14 66.08 64.84 64.77 64.53 64.55 65.44 66.15 66.67 65.28 64.36 63.71 64.00 62.59 61.61 61.59 61.00 60.75 59.87 59.71 61.38 61.02 60.67 61.17 61.83 61.85 61.97 63.33 62.45 62.75 63.31 64.13 65.87 66.80 69.80
62.17 63.80 65.84 68.14 68.46 69.91 68.90 67.72 65.87 64.15 63.67 64.48 65.51 64.76 66.27 65.90 66.28 65.30 65.30 63.76 63.46 62.36 61.62 61.67 60.61 59.63 58.59 59.45 58.86 58.95 58.33 59.87 60.21 60.88 61.50 61.53 61.59 61.63 61.22 64.92 65.08 66.14 67.01
62.53 65.22 65.95 67.70 68.11 67.73 68.07 66.28 65.10 63.44 62.98 62.85 63.53 64.07 65.11 65.55 64.54 64.19 63.38 63.13 61.85 62.11 61.59 61.38 60.93 57.89 57.33 58.41 56.65 57.63 54.75 56.25 58.21 60.47 60.80 61.43 60.16 61.55 62.84 64.79 64.59 65.45 65.64
63.24 63.81 64.71 66.08 67.53 67.34 67.38 65.83 64.30 63.40 62.57 62.05 62.09 63.05 64.24 64.76 64.74 63.75 63.61 62.43 62.65 62.34 59.93 59.51 59.65 58.67 56.43 57.87 57.91 54.77 51.90 51.75 54.29 57.95 59.68 60.95 62.61 61.46 61.71 64.02 64.72 64.84 64.74
63.21 64.23 65.60 67.08 67.01 66.14 65.32 64.31 62.77 60.44 60.21 60.77 61.06 62.33 64.10 64.41 65.64 64.63 63.92 62.77 61.62 61.18 60.21 59.95 61.09 59.61 58.79 57.15 57.89 59.20 57.59 56.67 52.09 51.46 56.53 58.74 60.13 60.48 60.04 61.82 63.34 63.61 63.50
63.62 64.13 66.05 66.25 65.15 65.97 63.86 63.90 62.22 60.48 61.28 61.83 62.36 62.68 63.07 63.30 63.95 64.51 63.41 62.34 61.66 61.00 60.39 60.22 59.79 59.31 58.73 57.45 56.79 56.29 56.71 56.21 57.69 53.19 51.33 54.72 57.33 58.78 60.67 61.63 61.55 62.00 63.76
64.40 65.14 65.36 64.63 64.43 64.52 63.85 63.48 61.13 60.61 61.14 60.40 61.13 60.48 60.67 61.79 62.39 63.24 63.62 62.11 61.67 61.01 60.73 60.31 60.07 59.65 59.87 59.78 60.06 59.30 57.71 55.23 54.29 53.96 52.16 53.59 54.46 56.95 59.20 61.14 62.21 61.57 61.53
MSLP
1008.67 1008.69 1008.98 1009.29 1009.66 1009.97 1010.40 1010.89 1011.34 1011.83 1012.23 1012.56 1012.81 1013.10 1013.44 1013.62 1013.85 1014.03 1014.23 1014.40 1014.51 1014.57 1014.77 1014.86 1014.93 1015.03 1014.99 1014.99 1015.04 1015.05 1014.91 1014.91 1014.89 1014.91 1015.00 1015.09 1014.99 1014.93 1014.78 1014.76 1014.74 1015.03 1015.57
1007.57 1008.51 1008.82 1009.20 1009.54 1009.86 1010.23 1010.71 1011.17 1011.52 1012.01 1012.46 1012.76 1012.98 1013.34 1013.58 1013.79 1014.03 1014.26 1014.44 1014.55 1014.59 1014.69 1014.91 1014.91 1014.85 1014.85 1014.89 1014.95 1014.95 1014.97 1014.78 1014.82 1014.92 1014.97 1015.02 1015.06 1014.87 1014.78 1014.78 1014.86 1015.07 1015.43
1007.33 1008.12 1008.58 1009.09 1009.44 1009.71 1010.18 1010.66 1011.15 1011.39 1011.75 1012.24 1012.72 1013.04 1013.30 1013.54 1013.85 1013.94 1014.22 1014.40 1014.48 1014.60 1014.58 1014.71 1014.86 1014.86 1014.84 1014.81 1014.88 1014.92 1014.97 1014.86 1014.77 1014.93 1014.88 1014.92 1014.80 1014.66 1014.72 1014.86 1014.99 1015.16 1015.33
1006.89 1007.78 1008.43 1008.93 1009.35 1009.70 1010.09 1010.46 1010.92 1011.28 1011.80 1012.29 1012.75 1012.99 1013.24 1013.51 1013.71 1013.87 1014.11 1014.40 1014.28 1014.44 1014.59 1014.61 1014.67 1014.73 1014.80 1014.80 1014.79 1014.81 1014.83 1014.85 1014.85 1014.85 1014.88 1014.76 1014.67 1014.42 1014.33 1014.55 1014.86 1015.06 1015.22
1006.88 1007.71 1008.22 1008.79 1009.23 1009.69 1009.93 1010.37 1010.79 1011.25 1011.65 1012.15 1012.55 1012.73 1012.93 1013.22 1013.40 1013.69 1013.87 1014.15 1014.18 1014.24 1014.40 1014.41 1014.46 1014.46 1014.50 1014.58 1014.60 1014.60 1014.68 1014.68 1014.75 1014.69 1014.71 1014.61 1014.55 1014.39 1013.67 1014.23 1014.51 1014.94 1015.18
1006.80 1007.60 1008.28 1008.86 1009.27 1009.60 1009.85 1010.20 1010.64 1011.07 1011.32 1011.83 1012.16 1012.30 1012.65 1012.99 1013.19 1013.45 1013.71 1013.89 1013.90 1013.98 1014.06 1014.12 1014.19 1014.26 1014.28 1014.35 1014.32 1014.41 1014.44 1014.51 1014.51 1014.61 1014.48 1014.31 1014.40 1014.28 1013.85 1014.27 1014.59 1014.93 1015.07
1006.41 1006.80 1007.38 1008.39 1009.08 1009.59 1009.97 1010.21 1010.47 1010.74 1010.78 1011.18 1011.54 1011.87 1012.19 1012.48 1012.76 1013.08 1013.45 1013.59 1013.61 1013.66 1013.76 1013.79 1013.93 1014.05 1014.14 1014.25 1014.11 1014.19 1014.18 1014.27 1014.39 1014.34 1014.29 1014.19 1014.03 1013.94 1013.89 1014.22 1014.50 1014.74 1015.03
1005.33 1005.87 1006.34 1007.06 1007.84 1008.70 1009.38 1009.84 1010.18 1010.49 1010.62 1010.68 1010.90 1011.29 1011.63 1011.94 1012.21 1012.59 1012.96 1013.11 1013.18 1013.32 1013.45 1013.50 1013.64 1013.84 1013.92 1014.06 1013.96 1013.94 1013.94 1014.01 1014.09 1014.18 1014.07 1014.03 1014.01 1013.75 1013.77 1013.96 1014.34 1014.52 1014.84
1004.58 1005.25 1005.94 1006.50 1006.73 1007.31 1008.03 1008.73 1009.26 1009.73 1010.27 1010.68 1010.76 1010.91 1011.12 1011.47 1011.65 1012.09 1012.49 1012.55 1012.71 1012.89 1013.14 1013.23 1013.33 1013.48 1013.61 1013.65 1013.64 1013.69 1013.72 1013.71 1013.84 1014.01 1013.89 1013.79 1013.79 1013.56 1013.67 1013.64 1014.08 1014.30 1014.64
1004.29 1004.74 1005.31 1005.90 1006.58 1007.06 1007.45 1007.56 1008.30 1009.01 1009.50 1010.18 1010.74 1011.02 1011.04 1011.28 1011.37 1011.56 1011.98 1012.16 1012.27 1012.37 1012.73 1012.90 1013.02 1013.07 1013.17 1013.25 1013.33 1013.32 1013.40 1013.49 1013.57 1013.68 1013.65 1013.59 1013.50 1013.32 1013.53 1013.54 1013.88 1014.09 1014.39
1003.79 1004.37 1004.96 1005.28 1005.78 1006.23 1006.92 1007.36 1007.59 1008.23 1008.99 1009.58 1010.19 1010.70 1011.00 1011.14 1011.15 1011.19 1011.27 1011.56 1011.86 1011.94 1012.11 1012.47 1012.65 1012.84 1012.89 1012.88 1012.99 1013.06 1013.11 1013.31 1013.39 1013.38 1013.34 1013.24 1013.23 1013.18 1013.53 1013.69 1013.83 1014.18 1014.21
1003.11 1003.95 1004.22 1004.85 1005.31 1006.14 1006.31 1006.91 1007.46 1007.72 1008.27 1008.91 1009.62 1010.22 1010.70 1010.93 1011.01 1010.94 1010.93 1010.89 1011.09 1011.40 1011.72 1011.97 1012.29 1012.40 1012.54 1012.68 1012.69 1012.68 1012.90 1012.99 1013.10 1013.11 1013.04 1012.85 1012.92 1013.04 1013.33 1013.42 1013.73 1014.02 1014.08
1002.39 1002.88 1003.83 1004.14 1004.70 1005.07 1005.62 1006.17 1006.85 1007.39 1007.73 1008.22 1008.84 1009.54 1010.19 1010.58 1010.76 1010.62 1010.75 1010.51 1010.75 1010.94 1011.45 1011.71 1011.97 1012.14 1012.20 1012.36 1012.39 1012.44 1012.38 1012.55 1012.68 1012.69 1012.69 1012.51 1012.47 1012.78 1013.04 1013.28 1013.52 1013.78 1013.94
1001.85 1002.15 1002.57 1003.35 1003.86 1004.36 1004.79 1005.32 1005.92 1006.66 1007.09 1007.55 1008.08 1008.71 1009.47 1010.11 1010.34 1010.66 1010.71 1010.71 1010.84 1010.87 1011.29 1011.50 1011.69 1011.70 1011.96 1011.88 1011.83 1011.79 1011.97 1011.99 1012.25 1012.35 1012.27 1012.08 1012.13 1012.39 1012.86 1013.11 1013.15 1013.38 1013.81
1001.61 1001.62 1001.81 1002.57 1003.01 1003.67 1004.38 1004.86 1005.27 1005.75 1006.18 1006.48 1007.20 1007.72 1008.44 1009.24 1009.71 1010.02 1010.16 1010.27 1010.51 1010.67 1010.91 1011.32 1011.59 1011.61 1011.84 1011.72 1011.53 1011.43 1011.64 1011.69 1011.74 1011.98 1011.72 1011.57 1011.51 1012.12 1012.67 1012.91 1012.87 1013.02 1013.47
1000.71 1001.09 1000.91 1001.73 1002.11 1002.68 1003.33 1003.85 1004.46 1004.86 1005.44 1005.89 1006.44 1006.84 1007.65 1008.32 1009.04 1009.43 1009.81 1010.14 1010.26 1010.26 1010.46 1010.75 1011.10 1011.30 1011.40 1011.46 1011.45 1011.27 1011.26 1011.20 1011.23 1011.49 1011.52 1011.64 1011.74 1012.09 1012.40 1012.65 1012.62 1012.87 1013.15
1000.04 1000.16 1000.39 1000.71 1001.23 1001.82 1002.38 1003.17 1003.82 1004.31 1004.91 1005.37 1005.77 1006.14 1006.83 1007.67 1008.45 1008.92 1009.48 1009.88 1009.94 1009.85 1009.99 1010.37 1010.70 1010.93 1011.16 1011.33 1011.41 1011.31 1011.17 1010.93 1010.97 1011.15 1011.30 1011.50 1011.68 1011.90 1012.11 1012.24 1012.31 1012.50 1012.76
999.31 999.60 999.62 999.92 1000.72 1001.29 1001.92 1002.66 1003.33 1003.96 1004.33 1004.80 1005.29 1005.78 1006.44 1007.23 1007.78 1008.54 1009.13 1009.51 1009.52 1009.69 1010.10 1010.38 1010.62 1010.88 1011.11 1011.21 1011.32 1011.19 1010.95 1010.90 1010.91 1010.75 1010.88 1011.27 1011.49 1011.65 1011.83 1011.93 1012.14 1012.29 1012.56
998.56 998.81 999.24 999.89 1000.49 1001.06 1001.65 1002.39 1003.01 1003.58 1004.06 1004.64 1005.25 1005.80 1006.33 1007.16 1007.38 1008.20 1008.80 1009.13 1009.28 1009.75 1010.04 1010.27 1010.59 1010.79 1011.01 1011.08 1011.19 1011.10 1010.97 1010.77 1010.72 1010.64 1010.76 1010.79 1011.18 1011.35 1011.42 1011.56 1011.70 1012.08 1012.36
998.10 998.54 999.00 999.77 1000.39 1000.93 1001.58 1002.40 1003.21 1003.68 1004.23 1004.73 1005.25 1005.90 1006.41 1006.67 1007.11 1007.87 1008.45 1008.82 1009.18 1009.52 1009.92 1010.11 1010.36 1010.54 1010.68 1010.84 1010.97 1010.99 1010.86 1010.72 1010.69 1010.62 1010.60 1010.43 1010.67 1010.89 1011.08 1011.21 1011.53 1011.95 1012.14
998.42 998.61 999.27 999.97 1000.69 1001.03 1001.78 1002.55 1003.41 1004.05 1004.43 1004.80 1005.28 1005.71 1006.06 1006.31 1006.85 1007.55 1007.97 1008.55 1008.85 1009.18 1009.47 1009.65 1009.96 1010.38 1010.59 1010.61 1011.04 1010.89 1010.83 1010.65 1010.57 1010.47 1010.60 1010.46 1010.45 1010.50 1010.75 1010.99 1011.29 1011.64 1011.91
998.89 999.22 999.69 999.98 1000.80 1001.22 1001.70 1002.50 1003.19 1003.81 1004.28 1004.51 1005.12 1005.50 1005.83 1006.37 1006.85 1007.32 1007.68 1008.11 1008.62 1008.82 1009.06 1009.36 1009.65 1010.19 1010.47 1010.54 1010.87 1011.05 1011.09 1010.85 1010.54 1010.28 1010.46 1010.49 1010.48 1010.46 1010.63 1010.77 1010.90 1011.27 1011.67
998.73 999.42 999.87 1000.17 1000.97 1001.33 1001.79 1002.59 1003.40 1003.94 1004.38 1004.96 1005.36 1005.55 1005.85 1006.21 1006.67 1007.07 1007.50 1007.98 1008.24 1008.49 1008.87 1009.15 1009.51 1009.90 1010.33 1010.37 1010.30 1010.72 1011.06 1010.92 1010.69 1010.20 1010.30 1010.27 1010.24 1010.35 1010.39 1010.68 1010.76 1011.16 1011.39
998.95 999.29 999.83 1000.53 1001.08 1001.48 1001.93 1002.73 1003.43 1004.23 1004.83 1005.00 1005.23 1005.40 1005.85 1006.20 1006.62 1006.91 1007.40 1007.79 1008.09 1008.25 1008.53 1008.75 1008.96 1009.39 1009.86 1010.13 1010.26 1010.19 1010.32 1010.82 1010.95 1010.66 1010.38 1010.35 1010.25 1010.43 1010.66 1010.88 1011.12 1011.33 1011.47
998.82 999.21 1000.09 1000.72 1001.19 1001.64 1002.26 1002.86 1003.53 1004.15 1004.49 1004.82 1005.22 1005.69 1006.12 1006.39 1006.60 1006.95 1007.37 1007.62 1007.82 1008.02 1008.13 1008.32 1008.56 1008.91 1009.22 1009.55 1009.81 1010.06 1010.22 1010.71 1010.75 1011.04 1010.74 1010.60 1010.61 1010.62 1010.51 1010.91 1011.36 1011.61 1011.72
998.95 999.68 1000.29 1000.91 1001.56 1001.96 1002.56 1003.13 1003.62 1004.25 1004.72 1005.13 1005.67 1006.16 1006.51 1006.64 1006.84 1006.97 1007.21 1007.41 1007.63 1007.73 1007.93 1008.14 1008.33 1008.56 1008.81 1008.95 1009.18 1009.39 1009.60 1010.13 1010.08 1010.57 1010.73 1010.88 1010.91 1011.04 1011.05 1011.24 1011.65 1011.94 1012.00
Wind_Speed
7 14 20 19 19 18 18 18 17 16 15 14 13 12 12 11 10 10 9 9 8 7 5 4 3 3 3 2 2 2 3 5 7 10 9 8 8 5 3 6 9 10 10
16 15 21 19 19 19 19 18 17 17 15 14 13 13 12 11 10 9 8 7 6 6 4 2 1 1 1 1 1 2 3 4 6 8 10 10 10 7 5 3 6 10 12
17 15 17 20 20 19 18 18 17 17 16 15 13 12 12 11 10 9 8 7 6 4 4 3 2 1 1 2 2 3 3 3 5 7 9 5 6 12 8 7 6 9 11
18 14 14 20 19 19 19 18 17 17 15 14 13 12 11 10 9 8 8 7 7 6 5 4 4 4 4 4 4 4 4 5 5 6 5 6 7 12 10 10 8 10 10
15 13 13 20 19 19 19 18 17 16 16 15 15 14 13 12 10 9 8 8 7 7 7 6 6 6 6 7 7 6 5 5 6 6 6 6 6 10 14 9 6 9 11
15 14 14 19 18 18 19 18 18 17 17 17 16 15 14 12 11 10 9 9 9 8 7 8 9 8 8 8 7 8 8 7 6 5 6 7 7 9 9 6 4 6 11
16 16 18 22 19 18 18 19 19 19 19 19 18 17 16 14 13 12 11 10 9 9 9 9 6 5 6 7 9 9 6 8 5 5 6 6 6 9 10 9 7 5 8
19 18 19 27 25 22 20 19 19 19 19 20 20 19 18 17 15 13 13 12 11 11 10 8 7 7 6 7 7 8 9 9 6 4 6 5 5 11 14 13 9 6 6
17 17 16 18 24 27 25 23 22 21 20 19 19 19 18 17 15 14 14 14 13 11 11 10 9 9 9 9 9 8 10 11 6 4 7 4 7 11 12 13 11 8 6
15 16 15 15 17 17 18 26 24 22 21 19 18 17 17 16 15 15 15 14 14 13 13 12 12 11 10 10 10 10 11 12 5 5 5 4 10 12 14 15 12 11 8
10 14 14 17 17 17 15 17 23 24 21 19 18 17 13 6 8 12 14 17 15 16 15 13 14 13 12 12 11 12 14 3 5 4 4 10 10 9 10 10 11 9 9
4 15 15 15 15 14 13 15 14 14 12 11 10 9 6 7 6 10 11 20 18 18 15 15 15 14 12 4 4 12 4 5 5 4 4 14 12 13 13 11 11 10 9
8 8 15 15 15 17 13 11 8 7 8 8 11 8 8 6 6 6 3 3 7 12 6 8 7 5 5 5 4 4 8 7 5 5 8 14 14 16 15 14 13 10 9
8 6 17 17 16 16 10 11 11 9 9 8 10 11 8 6 5 4 3 4 4 4 6 5 4 6 6 7 8 6 7 7 5 3 6 18 15 15 16 15 14 13 10
8 6 8 13 16 15 12 10 11 11 10 11 10 12 10 6 5 5 5 4 4 4 5 4 4 4 5 6 5 4 5 5 5 3 2 7 12 15 15 15 14 14 12
8 9 6 12 16 16 14 13 11 10 10 10 9 10 12 7 5 5 4 4 5 5 5 4 4 4 3 2 5 5 5 4 4 5 3 3 9 11 12 14 14 15 14
7 8 9 9 11 15 15 10 10 10 9 10 9 11 12 9 7 6 4 3 4 3 4 3 3 2 2 3 5 5 5 5 4 3 5 4 6 14 14 14 14 15 15
7 9 9 8 11 11 11 7 7 8 6 7 6 8 12 8 8 5 3 3 4 3 3 2 2 3 3 4 3 5 4 4 5 5 4 4 5 5 11 16 14 14 15
10 7 7 9 10 10 8 7 6 7 5 5 5 6 9 8 7 6 4 4 5 4 3 3 3 3 3 3 3 4 3 2 3 4 6 6 7 6 4 12 15 15 15
6 6 7 7 9 9 7 6 5 5 5 5 5 5 7 7 8 6 4 4 5 4 3 3 5 4 3 4 3 4 3 4 3 4 5 4 5 6 6 6 7 8 14
6 8 8 10 8 9 7 6 4 4 4 3 4 7 8 7 7 6 5 5 4 4 5 5 4 5 3 2 2 1 2 4 5 4 3 4 5 6 5 4 6 5 7
7 8 8 9 9 6 6 4 4 5 3 4 3 6 7 8 7 6 6 5 5 4 5 4 4 1 2 3 3 1 2 3 2 4 3 4 6 5 5 6 6 6 5
10 9 8 9 9 8 8 5 4 4 4 3 1 2 4 7 6 6 6 4 5 3 2 3 5 6 4 3 5 4 1 3 0 1 5 3 6 4 2 6 6 4 5
8 8 9 9 9 8 8 6 5 5 4 3 4 3 4 6 5 6 4 4 4 3 4 4 5 4 4 4 1 4 3 3 0 1 2 1 3 3 2 3 4 4 5
10 9 9 9 8 8 7 7 6 5 3 3 4 7 5 4 5 5 5 4 4 4 4 4 4 5 4 4 3 2 4 3 1 1 2 1 2 2 1 4 5 4 5
10 11 10 9 6 8 8 8 8 7 5 5 5 5 3 2 2 3 5 4 5 4 4 3 5 5 5 4 4 4 4 5 5 3 2 2 4 1 1 4 5 4 4
Wind_Direction
154 158 161 157 154 150 149 148 146 144 141 141 139 136 133 130 127 126 125 125 125 119 108 100 100 106 97 63 39 13 356 343 342 340 345 348 331 316 201 147 128 119 128
141 161 163 162 159 156 156 153 152 147 148 151 149 147 146 142 140 139 137 137 137 134 130 122 107 83 54 14 354 336 320 336 334 329 327 327 316 285 242 180 138 139 141
144 160 165 166 165 162 160 157 157 154 156 156 154 152 152 151 154 152 158 164 164 168 165 175 203 255 279 272 274 289 291 298 314 316 313 315 291 290 232 212 167 152 156
147 158 166 171 169 167 162 163 163 160 158 156 160 158 159 163 165 166 174 189 186 196 212 221 228 236 250 257 257 250 272 281 282 293 305 289 292 291 246 215 192 173 165
144 157 168 172 172 172 167 168 167 164 160 165 168 169 172 176 177 183 189 205 210 214 223 232 245 248 249 238 245 246 251 264 285 289 281 275 279 287 268 183 187 184 171
146 155 166 176 177 177 174 171 171 171 167 173 177 177 182 186 188 193 206 218 223 230 242 249 252 253 256 259 261 241 233 247 270 279 272 274 273 261 113 134 173 180 175
156 164 163 176 181 182 183 178 178 180 176 181 183 184 188 191 194 199 215 225 232 237 244 257 271 275 266 268 266 252 235 236 251 268 277 278 299 184 133 144 149 171 197
164 168 169 175 178 181 186 187 185 187 189 188 185 188 190 194 195 199 211 224 234 244 243 248 251 260 262 265 265 254 227 228 247 263 272 274 249 160 150 143 146 156 196
167 163 170 180 180 180 183 187 188 189 195 199 194 193 193 197 193 199 212 219 227 237 231 238 244 245 251 255 254 244 224 231 230 245 272 277 254 189 169 145 149 158 188
164 170 171 173 181 185 188 185 187 192 193 197 203 204 200 200 199 201 213 221 223 217 223 230 237 243 248 245 246 242 232 231 231 238 252 263 276 209 178 157 155 160 173
166 170 173 178 182 185 188 191 186 190 194 196 203 207 205 199 205 209 212 221 217 219 214 221 232 240 250 250 244 241 237 211 218 233 247 251 252 179 178 157 145 163 171
255 183 179 178 180 176 185 188 191 188 189 189 195 199 195 203 215 217 218 224 207 217 205 218 229 237 247 228 239 243 226 213 217 224 238 245 239 180 183 161 162 166 174
257 155 183 182 178 179 188 180 182 187 182 183 186 178 193 204 221 226 220 223 201 205 189 216 231 228 211 223 226 230 211 208 222 228 238 250 213 193 191 179 172 169 176
252 244 183 184 178 189 181 179 176 180 184 183 192 181 186 200 212 227 210 197 172 178 195 205 208 206 217 223 235 223 197 203 201 219 221 235 216 196 193 186 180 174 179
249 231 164 164 182 185 187 180 177 184 184 181 181 190 191 182 192 200 220 183 183 171 192 209 204 196 212 234 243 232 205 216 231 198 197 280 188 186 194 194 187 183 188
215 216 201 173 182 181 187 178 182 179 178 177 182 188 184 177 179 187 206 221 178 184 183 166 174 176 186 225 262 252 237 228 259 196 200 205 185 187 200 206 196 195 195
197 204 220 202 174 180 178 164 175 179 172 182 187 180 172 163 173 171 192 218 208 189 164 153 167 176 201 233 247 269 260 235 237 213 187 187 181 191 204 211 207 199 198
190 205 225 160 169 168 172 158 155 171 156 167 148 154 158 158 163 171 193 206 205 165 157 161 189 219 221 227 223 265 275 208 227 222 194 180 185 199 213 206 205 205 202
208 222 189 158 162 159 148 145 138 144 129 138 130 138 155 173 162 162 184 205 150 148 175 179 222 193 215 234 233 247 250 252 230 220 209 200 190 205 191 215 200 209 209
197 170 147 143 145 139 127 117 106 108 123 121 137 151 168 161 167 171 192 211 163 154 207 186 207 221 191 216 238 228 227 227 236 247 230 226 203 206 205 187 199 208 206
121 117 138 135 148 139 147 139 123 140 141 120 144 156 166 164 173 184 175 167 168 194 206 198 184 204 245 230 218 277 279 247 254 244 261 245 245 235 197 172 183 180 196
134 123 122 125 141 127 132 118 127 135 149 143 157 180 158 161 165 164 172 175 198 199 221 206 171 148 217 190 147 92 327 319 275 244 233 235 220 231 172 169 176 174 183
142 139 134 129 133 122 130 116 101 84 56 73 134 163 171 149 140 144 157 186 197 197 221 192 179 184 200 212 185 148 162 238 155 259 232 244 188 201 146 179 173 159 166
149 134 121 124 124 125 132 114 127 141 138 185 159 148 134 137 145 149 153 160 176 187 196 210 196 188 160 203 202 228 233 112 187 344 15 206 167 202 216 136 135 127 115
136 117 120 118 115 118 126 128 129 117 137 126 119 109 113 103 127 156 163 179 187 189 206 203 187 193 184 171 180 158 215 49 152 207 168 225 27 256 108 132 132 126 121
117 118 121 119 124 115 123 127 124 109 88 102 101 113 127 130 163 180 178 162 186 190 208 214 205 195 194 200 197 201 180 160 211 186 158 218 152 325 98 122 120 100 102